Regional Weather Roundup
Issued by NWS

Home | Current Version | Previous Version | Text Only | Print | Product List | Glossary Off
Versions: 1 2 3 4 5 6 7 8 9 10 11 12 13 14 15 16 17 18 19 20 21 22 23 24 25 26 27 28 29 30 31 32 33 34 35 36 37 38 39 40 41 42 43 44 45 46 47 48 49 50

118
ASUS43 KIND 221509
RWRIN

WEATHER ROUNDUP FOR INDIANA
NATIONAL WEATHER SERVICE INDIANAPOLIS IN
1100 AM EDT SUN APR 22 2018

NOTE: "FAIR" INDICATES FEW OR NO CLOUDS BELOW 12,000 FEET WITH NO
SIGNIFICANT WEATHER AND/OR OBSTRUCTIONS TO VISIBILITY.

* - STATION DOES NOT REPORT WEATHER SUCH AS PRECIPITATION OR FOG.

+ - STATION NOT QUALITY CONTROLLED BY THE NATIONAL WEATHER SERVICE.
    USE DATA WITH CAUTION...ESPECIALLY DEWPOINT AND RELATIVE
    HUMIDITY OBSERVATIONS.

INZ001>003-010>013-019-020-221600-
NORTHWEST INDIANA

CITY           SKY/WX    TMP DP  RH WIND       PRES   REMARKS
GARY /AIRPORT/ CLOUDY    54  32  43 NE6       30.37S
KNOX *+        FAIR      54  19  26 E12       30.35S
LA PORTE +     FAIR      55  23  28 E14G21    30.37S
MICHIGAN CITY+ FAIR      54  25  32 E8        30.37S
MONTICELLO +   FAIR      52  18  26 E6        30.32S
RENSSELAER +   FAIR      54  -8   8 E15       30.33F
VALPARAISO     FAIR      58  22  24 E17       30.35F

$$

LMZ046-743>745-221600-
SOUTHERN LAKE MICHIGAN

STATION/POSITION TIME  TEMP    WIND        PRES    WAVE
                       AIR SEA DIR/SP/G            HT
                 (UTC) (F)     (DEG/KT/KT) (MB)    (FT)
BURNS HARBOR     1440   46      40/  9/ 10 1028.4F
MICHIGAN CITY    1440   53      70/ 16/ 17   N/A

$$

INZ004-005-014>016-021>024-221600-
NORTH CENTRAL INDIANA

CITY           SKY/WX    TMP DP  RH WIND       PRES   REMARKS
GOSHEN         FAIR      53  27  36 E13       30.37F
LOGANSPORT +   FAIR      52  23  32 E8        30.35R
PERU/GRISSOM   CLOUDY    52  23  32 E10       30.33S
ROCHESTER +    FAIR      54  21  28 E13       30.36R
SOUTH BEND     FAIR      53  17  24 E13       30.38F
WARSAW +       FAIR      52  27  37 E12       30.36F

$$

INZ006>009-017-018-025>027-221600-
NORTHEAST INDIANA

CITY           SKY/WX    TMP DP  RH WIND       PRES   REMARKS
AUBURN +       FAIR      52  30  43 NE14      30.38F
FORT WAYNE     CLOUDY    50  29  44 E13       30.37F
HUNTINGTON +   FAIR      48  26  42 E8        30.36R

$$

INZ028-029-035-036-043>045-051>053-221600-
WEST CENTRAL INDIANA

CITY           SKY/WX    TMP DP  RH WIND       PRES   REMARKS
CRAWFORDSVL +  FAIR      51  29  42 NE12      30.28S
GREENCASTLE +  CLOUDY    52  28  40 E10       30.25F
LAFAYETTE      FAIR      52  29  41 E14       30.30F
TERRE HAUTE    FAIR      55  33  43 E10       30.23F

$$

INZ030>032-037>040-046>048-054>057-064-065-221600-
CENTRAL INDIANA

CITY           SKY/WX    TMP DP  RH WIND       PRES   REMARKS
COLUMBUS       PTSUNNY   55 N/A N/A NE9       30.26F
FRANKFORT +    FAIR      56  30  36 E14       30.31F
GREENWOOD *+   FAIR      55  31  39 E12       30.28F
INDIANAPOLIS   PTSUNNY   54  28  36 NE9       30.28F
-EAGLE CREEK   FAIR      54  29  38 E9        30.28F
KOKOMO +       FAIR      50  30  46 E13       30.33F
MARION +       FAIR      49  29  46 E10       30.34S
MT COMFORT *+  FAIR      54  37  54 E10       30.29F
SHELBYVILLE    FAIR      58  30  34 NE13      30.27F
ZIONSVILLE +   FAIR      51  29  42 E10       30.30F

$$

INZ033-034-041-042-049-050-058-059-221600-
EAST CENTRAL INDIANA

CITY           SKY/WX    TMP DP  RH WIND       PRES   REMARKS
MUNCIE         FAIR      53  31  42 E12       30.32S
RICHMOND +     PTSUNNY   50  32  50 NE10      30.31F

$$

INZ060-061-067>069-081>083-085>088-221600-
SOUTHWEST INDIANA

CITY           SKY/WX    TMP DP  RH WIND       PRES   REMARKS
EVANSVILLE     FAIR      59  36  42 E9        30.18F
HUNTINGBURG +  FAIR      59  37  44 E7        30.19F
WASHINGTON +   FAIR      58  30  33 E10       30.20F

$$

INZ062-063-066-070>080-084-089>092-221600-
SOUTH CENTRAL AND SOUTHEAST INDIANA

CITY           SKY/WX    TMP DP  RH WIND       PRES   REMARKS
BATESVILLE +   SUNNY     54  30  40 MISG      30.27F
BEDFORD +      FAIR      57  25  28 E10       30.23S
BLOOMINGTON    FAIR      58  28  32 E9        30.23F
FRENCH LICK *+ FAIR      59  21  23 NE8       30.21S
MADISON *+     FAIR      59  28  31 E6        30.26S
NORTH VERNON + FAIR      57  30  35 E8        30.25F
SEYMOUR +      FAIR      59  32  36 E6        30.25F

$$





USA.gov is the U.S. government's official web portal to all federal, state and local government web resources and services.